EW0609 Weather Reports


Display with metric or nautical units.
time (UTC)temp
F
wind
direction
speed
MPH
gust
MPH
rain 1hr
in
rain 24hr
in
rain mn
in
humidity
%
barometer
mb
20260902212124 95 149 4.0 11.0 0.00 0.00 0.00 38 1015.2
20260902211630 94 233 3.0 7.0 0.00 0.00 0.00 37 1015.1
20260902210801 94 159 4.0 7.0 0.00 0.00 0.00 39 1015.1
20260902210302 91 125 3.0 7.0 0.00 0.00 0.00 41 1015.3
20260902205802 90 219 2.0 12.0 0.00 0.00 0.00 45 1015.3
20260902205306 87 285 3.0 22.0 0.00 0.00 0.00 42 1015.4
20260902205130 86 180 9.0 22.0 0.00 0.00 0.00 49 1015.7
20260902204302 89 227 5.0 11.0 0.00 0.00 0.00 46 1015.7
20260902203801 91 234 6.0 14.0 0.00 0.00 0.00 38 1015.6
20260902203459 94 200 8.0 16.0 0.00 0.00 0.00 35 1015.7
20260902203414 92 164 6.0 14.0 0.00 0.00 0.00 36 1015.6
20260902202306 97 219 6.0 16.0 0.00 0.00 0.00 34 1015.8
20260902201801 97 145 8.0 14.0 0.00 0.00 0.00 34 1015.8
20260902201301 97 185 8.0 15.0 0.00 0.00 0.00 36 1015.8
20260902200801 96 238 8.0 15.0 0.00 0.00 0.00 35 1015.9
20260902200635 96 206 6.0 11.0 0.00 0.00 0.00 34 1015.9
20260902195953 94 164 6.0 12.0 0.00 0.00 0.00 37 1016.2
20260902195910 96 157 6.0 12.0 0.00 0.00 0.00 35 1016.1
20260902194802 91 217 0.0 1.0 0.00 0.00 0.00 43 1016.4
20260902194302 88 176 0.0 11.0 0.00 0.00 0.00 47 1016.4
20260902193802 87 248 1.0 12.0 0.00 0.00 0.00 47 1016.5
20260902193301 89 233 5.0 12.0 0.00 0.00 0.00 47 1016.7
20260902192802 91 180 6.0 14.0 0.00 0.00 0.00 40 1016.6
20260902192625 91 188 9.0 14.0 0.00 0.00 0.00 39 1016.7
20260902192024 91 195 6.0 13.0 0.00 0.00 0.00 38 1016.8
20260902191627 92 159 6.0 18.0 0.00 0.00 0.00 38 1016.7
20260902190801 93 168 8.0 18.0 0.00 0.00 0.00 36 1016.6
20260902190301 95 217 4.0 13.0 0.00 0.00 0.00 35 1016.7
20260902190126 96 210 4.0 13.0 0.00 0.00 0.00 37 1016.7
20260902185301 95 248 6.0 13.0 0.00 0.00 0.00 36 1016.8
20260902184802 95 169 6.0 16.0 0.00 0.00 0.00 36 1016.9
20260902184301 95 125 7.0 16.0 0.00 0.00 0.00 34 1017.3
20260902183801 96 149 5.0 13.0 0.00 0.00 0.00 35 1017.2
20260902183302 96 319 4.0 16.0 0.00 0.00 0.00 36 1017.5
20260902182801 95 133 7.0 16.0 0.00 0.00 0.00 35 1017.6
20260902182305 95 206 4.0 13.0 0.00 0.00 0.00 36 1017.6
20260902181801 95 111 7.0 13.0 0.00 0.00 0.00 38 1017.7
20260902181303 94 233 6.0 13.0 0.00 0.00 0.00 36 1018.0
20260902180801 95 197 6.0 13.0 0.00 0.00 0.00 38 1018.1
20260902180301 94 176 5.0 11.0 0.00 0.00 0.00 37 1018.1
20260902175801 94 135 6.0 11.0 0.00 0.00 0.00 39 1018.2
20260902175301 92 227 3.0 10.0 0.00 0.00 0.00 40 1018.2
20260902175011 91 173 6.0 14.0 0.00 0.00 0.00 40 1018.5
20260902174919 91 165 3.0 14.0 0.00 0.00 0.00 40 1018.4
20260902173802 91 168 6.0 14.0 0.00 0.00 0.00 41 1018.5
20260902173303 93 228 8.0 14.0 0.00 0.00 0.00 39 1018.5
20260902172952 92 217 6.0 14.0 0.00 0.00 0.00 40 1018.6
20260902172910 93 196 5.0 14.0 0.00 0.00 0.00 39 1018.6
20260902171802 92 183 5.0 14.0 0.00 0.00 0.00 40 1018.6
20260902171301 92 230 5.0 14.0 0.00 0.00 0.00 41 1018.6
20260902170801 91 216 3.0 12.0 0.00 0.00 0.00 41 1018.6
20260902170300 91 237 7.0 14.0 0.00 0.00 0.00 41 1018.8
20260902165800 91 164 5.0 16.0 0.00 0.00 0.00 41 1018.7
20260902165300 90 195 8.0 16.0 0.00 0.00 0.00 42 1019.0
20260902164800 90 155 4.0 11.0 0.00 0.00 0.00 43 1019.0
20260902164301 89 202 5.0 13.0 0.00 0.00 0.00 45 1019.0
20260902163801 89 240 8.0 13.0 0.00 0.00 0.00 43 1019.1
20260902163302 89 189 4.0 10.0 0.00 0.00 0.00 46 1019.0
20260902162802 88 147 6.0 14.0 0.00 0.00 0.00 44 1019.0
20260902162301 88 199 7.0 14.0 0.00 0.00 0.00 45 1019.1
20260902161802 88 209 6.0 11.0 0.00 0.00 0.00 45 1019.0
20260902161301 87 175 4.0 13.0 0.00 0.00 0.00 47 1019.0
20260902160801 86 223 6.0 13.0 0.00 0.00 0.00 46 1019.1
20260902160301 85 113 4.0 7.0 0.00 0.00 0.00 48 1019.0
20260902155803 84 128 2.0 7.0 0.00 0.00 0.00 49 1019.1
20260902155300 84 171 5.0 6.0 0.00 0.00 0.00 48 1019.1
20260902154759 83 200 4.0 6.0 0.00 0.00 0.00 48 1019.2
20260902154300 83 237 2.0 6.0 0.00 0.00 0.00 50 1019.1
20260902153800 82 127 4.0 6.0 0.00 0.00 0.00 49 1019.2
20260902153302 82 195 4.0 7.0 0.00 0.00 0.00 49 1019.0
20260902152759 82 180 4.0 9.0 0.00 0.00 0.00 49 1018.8
20260902152301 82 189 3.0 9.0 0.00 0.00 0.00 50 1019.0
20260902151801 82 216 3.0 6.0 0.00 0.00 0.00 51 1019.0
20260902151312 81 185 3.0 6.0 0.00 0.00 0.00 50 1019.0
20260902150914 80 237 2.0 5.0 0.00 0.00 0.00 52 1019.1
20260902145802 78 159 2.0 9.0 0.00 0.00 0.00 52 1019.0
20260902145305 78 209 3.0 9.0 0.00 0.00 0.00 53 1019.0
20260902144800 78 144 1.0 5.0 0.00 0.00 0.00 53 1019.1
20260902144301 77 166 3.0 6.0 0.00 0.00 0.00 53 1019.0
20260902144128 77 190 2.0 6.0 0.00 0.00 0.00 53 1018.8
20260902143300 77 175 2.0 7.0 0.00 0.00 0.00 54 1018.7
20260902143124 78 188 5.0 7.0 0.00 0.00 0.00 52 1018.8
20260902142301 79 155 4.0 9.0 0.00 0.00 0.00 52 1018.7
20260902141800 78 199 6.0 11.0 0.00 0.00 0.00 52 1018.7
20260902141302 78 213 5.0 11.0 0.00 0.00 0.00 52 1018.7
20260902140801 77 197 5.0 9.0 0.00 0.00 0.00 53 1018.6
20260902140301 77 228 5.0 9.0 0.00 0.00 0.00 55 1018.6
20260902140129 76 168 5.0 9.0 0.00 0.00 0.00 55 1018.6
20260902135300 76 169 4.0 11.0 0.00 0.00 0.00 55 1018.6
20260902134800 76 210 4.0 13.0 0.00 0.00 0.00 55 1018.6
20260902134301 75 186 4.0 13.0 0.00 0.00 0.00 55 1018.6
20260902133803 75 221 4.0 10.0 0.00 0.00 0.00 56 1018.5
20260902133302 75 166 2.0 10.0 0.00 0.00 0.00 56 1018.5
20260902132800 75 186 4.0 10.0 0.00 0.00 0.00 56 1018.4
20260902132301 74 234 5.0 9.0 0.00 0.00 0.00 57 1018.4
20260902132124 74 190 5.0 9.0 0.00 0.00 0.00 56 1018.2
20260902131302 74 178 4.0 9.0 0.00 0.00 0.00 56 1018.2
20260902130801 74 169 4.0 11.0 0.00 0.00 0.00 56 1018.2
20260902130300 74 190 4.0 11.0 0.00 0.00 0.00 56 1018.1
20260902125801 74 224 4.0 10.0 0.00 0.00 0.00 56 1018.2
20260902125300 74 158 4.0 10.0 0.00 0.00 0.00 56 1018.0
20260902124801 73 169 4.0 10.0 0.00 0.00 0.00 57 1018.0
20260902124300 73 135 4.0 10.0 0.00 0.00 0.00 57 1017.8
20260902123803 73 176 4.0 10.0 0.00 0.00 0.00 57 1017.7
20260902123301 73 190 6.0 10.0 0.00 0.00 0.00 57 1017.8
20260902122800 73 192 5.0 10.0 0.00 0.00 0.00 57 1017.7
20260902122300 73 193 4.0 10.0 0.00 0.00 0.00 57 1017.6
20260902121801 73 238 3.0 6.0 0.00 0.00 0.00 57 1017.6
20260902121301 73 206 3.0 9.0 0.00 0.00 0.00 57 1017.6
20260902120801 73 135 4.0 9.0 0.00 0.00 0.00 56 1017.5
20260902120301 73 189 4.0 9.0 0.00 0.00 0.00 56 1017.4
20260902115801 73 188 4.0 10.0 0.00 0.00 0.00 56 1017.4
20260902115307 74 224 5.0 13.0 0.00 0.00 0.00 55 1017.4
20260902114801 74 189 6.0 14.0 0.00 0.00 0.00 55 1017.4
20260902114623 74 221 6.0 14.0 0.00 0.00 0.00 55 1017.4
20260902113800 74 209 6.0 12.0 0.00 0.00 0.00 55 1017.4
20260902113300 73 186 5.0 11.0 0.00 0.00 0.00 56 1017.4
20260902112800 73 197 4.0 9.0 0.00 0.00 0.00 56 1017.3
20260902112305 73 186 4.0 11.0 0.00 0.00 0.00 56 1017.3
20260902111800 73 149 4.0 11.0 0.00 0.00 0.00 55 1017.3
20260902111301 74 165 4.0 9.0 0.00 0.00 0.00 55 1017.3
20260902110800 74 192 5.0 9.0 0.00 0.00 0.00 55 1017.4
20260902110301 74 292 5.0 10.0 0.00 0.00 0.00 55 1017.3
20260902105801 74 220 5.0 10.0 0.00 0.00 0.00 55 1017.4
20260902105300 74 197 5.0 10.0 0.00 0.00 0.00 55 1017.4
20260902105120 74 202 4.0 10.0 0.00 0.00 0.00 55 1017.5
20260902104300 74 188 4.0 10.0 0.00 0.00 0.00 55 1017.5
20260902103801 73 199 5.0 10.0 0.00 0.00 0.00 55 1017.5
20260902103300 73 165 4.0 10.0 0.00 0.00 0.00 56 1017.5
20260902102801 73 178 4.0 11.0 0.00 0.00 0.00 56 1017.5
20260902102307 73 176 5.0 11.0 0.00 0.00 0.00 55 1017.6
20260902101801 74 175 4.0 11.0 0.00 0.00 0.00 54 1017.7
20260902101625 74 103 2.0 11.0 0.00 0.00 0.00 54 1017.6
20260902100801 74 120 4.0 12.0 0.00 0.00 0.00 54 1017.6
20260902100301 75 173 4.0 12.0 0.00 0.00 0.00 53 1017.6
20260902095802 75 182 5.0 11.0 0.00 0.00 0.00 53 1017.7
20260902095625 75 228 5.0 11.0 0.00 0.00 0.00 53 1017.7
20260902094800 75 220 5.0 10.0 0.00 0.00 0.00 53 1017.7
20260902094300 75 164 5.0 13.0 0.00 0.00 0.00 52 1017.6
20260902093800 75 185 4.0 13.0 0.00 0.00 0.00 52 1017.7
20260902093301 75 123 5.0 12.0 0.00 0.00 0.00 52 1017.7
20260902092759 75 197 5.0 12.0 0.00 0.00 0.00 52 1017.6
20260902092300 75 166 4.0 13.0 0.00 0.00 0.00 52 1017.7
20260902091801 75 176 6.0 13.0 0.00 0.00 0.00 51 1017.7
20260902091300 76 231 5.0 13.0 0.00 0.00 0.00 51 1017.7
20260902090801 76 231 6.0 13.0 0.00 0.00 0.00 51 1017.8
20260902090301 76 240 4.0 12.0 0.00 0.00 0.00 51 1017.7
20260902085800 76 266 4.0 12.0 0.00 0.00 0.00 51 1017.8
20260902085301 76 199 5.0 12.0 0.00 0.00 0.00 52 1018.0
20260902084800 75 219 3.0 7.0 0.00 0.00 0.00 52 1018.0
20260902084301 75 223 2.0 12.0 0.00 0.00 0.00 51 1017.8
20260902083759 75 145 5.0 12.0 0.00 0.00 0.00 51 1018.0
20260902083301 75 180 5.0 11.0 0.00 0.00 0.00 51 1018.0
20260902082801 75 149 4.0 7.0 0.00 0.00 0.00 51 1018.0
20260902082300 75 162 4.0 9.0 0.00 0.00 0.00 52 1018.1
20260902081800 75 152 4.0 9.0 0.00 0.00 0.00 52 1018.0
20260902081300 74 189 4.0 10.0 0.00 0.00 0.00 52 1018.1
20260902080801 74 193 4.0 10.0 0.00 0.00 0.00 52 1018.1
20260902080625 74 154 4.0 10.0 0.00 0.00 0.00 52 1018.2
20260902080126 74 213 5.0 10.0 0.00 0.00 0.00 52 1018.1
20260902075622 74 182 3.0 6.0 0.00 0.00 0.00 51 1018.1
20260902074800 74 159 4.0 10.0 0.00 0.00 0.00 51 1018.1
20260902074625 75 186 6.0 10.0 0.00 0.00 0.00 51 1018.1
20260902073759 75 172 4.0 9.0 0.00 0.00 0.00 51 1018.0
20260902073300 75 158 3.0 10.0 0.00 0.00 0.00 51 1018.1
20260902072800 74 121 4.0 10.0 0.00 0.00 0.00 52 1018.1
20260902072617 75 172 4.0 10.0 0.00 0.00 0.00 52 1018.2
20260902071801 75 162 4.0 9.0 0.00 0.00 0.00 51 1018.2
20260902071300 75 206 3.0 11.0 0.00 0.00 0.00 51 1018.1
20260902070802 75 162 5.0 11.0 0.00 0.00 0.00 51 1018.2
20260902070302 75 234 3.0 7.0 0.00 0.00 0.00 51 1018.2
20260902065800 75 195 4.0 7.0 0.00 0.00 0.00 51 1018.3
20260902065300 75 206 3.0 7.0 0.00 0.00 0.00 52 1018.3
20260902064800 75 161 3.0 7.0 0.00 0.00 0.00 51 1018.2
20260902064628 76 199 3.0 7.0 0.00 0.00 0.00 51 1018.3
20260902063801 76 169 4.0 9.0 0.00 0.00 0.00 51 1018.3
20260902063301 76 164 3.0 9.0 0.00 0.00 0.00 50 1018.1
20260902062800 77 206 3.0 10.0 0.00 0.00 0.00 50 1018.2
20260902062305 77 182 2.0 10.0 0.00 0.00 0.00 50 1018.1
20260902061759 77 154 4.0 9.0 0.00 0.00 0.00 50 1018.0
20260902061616 77 165 3.0 12.0 0.00 0.00 0.00 49 1018.1
20260902061126 77 164 4.0 12.0 0.00 0.00 0.00 50 1018.0
20260902060300 77 147 3.0 7.0 0.00 0.00 0.00 50 1018.1
20260902055801 77 175 3.0 7.0 0.00 0.00 0.00 50 1018.1
20260902055301 77 137 2.0 7.0 0.00 0.00 0.00 50 1018.1
20260902055126 77 178 4.0 7.0 0.00 0.00 0.00 50 1018.1
20260902054300 77 113 2.0 6.0 0.00 0.00 0.00 50 1018.1
20260902053800 77 161 4.0 6.0 0.00 0.00 0.00 50 1018.1
20260902053629 77 147 3.0 7.0 0.00 0.00 0.00 50 1018.1
20260902052802 78 185 2.0 7.0 0.00 0.00 0.00 50 1018.1
20260902052259 78 199 3.0 7.0 0.00 0.00 0.00 49 1018.0
20260902051800 78 172 2.0 6.0 0.00 0.00 0.00 49 1018.1
20260902051301 78 151 2.0 7.0 0.00 0.00 0.00 49 1018.1
20260902050800 78 155 3.0 7.0 0.00 0.00 0.00 49 1018.0
20260902050259 78 200 2.0 7.0 0.00 0.00 0.00 49 1018.1
20260902050024 79 161 3.0 7.0 0.00 0.00 0.00 48 1018.1
20260902045259 79 152 3.0 7.0 0.00 0.00 0.00 48 1018.1
20260902044759 79 197 4.0 7.0 0.00 0.00 0.00 47 1018.0
20260902044638 79 137 3.0 7.0 0.00 0.00 0.00 47 1018.1
20260902043800 80 124 3.0 7.0 0.00 0.00 0.00 47 1018.1
20260902043301 80 131 4.0 7.0 0.00 0.00 0.00 46 1018.1
20260902042802 80 164 3.0 7.0 0.00 0.00 0.00 46 1018.1
20260902042300 80 104 3.0 6.0 0.00 0.00 0.00 46 1018.0
20260902041839 80 176 4.0 7.0 0.00 0.00 0.00 45 1018.0
20260902041306 80 172 3.0 9.0 0.00 0.00 0.00 45 1018.1
20260902040800 81 185 4.0 9.0 0.00 0.00 0.00 45 1018.0
20260902040259 81 176 3.0 9.0 0.00 0.00 0.00 44 1018.1
20260902035800 81 144 3.0 9.0 0.00 0.00 0.00 44 1018.0
20260902035301 81 188 3.0 9.0 0.00 0.00 0.00 44 1017.8
20260902034759 80 104 4.0 9.0 0.00 0.00 0.00 45 1018.0
20260902034259 80 137 2.0 6.0 0.00 0.00 0.00 45 1017.8
20260902034025 81 131 3.0 6.0 0.00 0.00 0.00 45 1017.8
20260902033804 81 131 3.0 6.0 0.00 0.00 0.00 45 1017.8
20260902033630 82 94 4.0 7.0 0.00 0.00 0.00 43 1017.8
20260902032801 82 134 3.0 11.0 0.00 0.00 0.00 42 1017.7
20260902032258 82 144 3.0 11.0 0.00 0.00 0.00 42 1017.7
20260902031759 82 190 5.0 9.0 0.00 0.00 0.00 42 1017.6
20260902031259 82 148 5.0 7.0 0.00 0.00 0.00 42 1017.6
20260902030800 82 183 3.0 7.0 0.00 0.00 0.00 43 1017.5
20260902030259 82 179 3.0 7.0 0.00 0.00 0.00 43 1017.5
20260902025847 83 131 4.0 7.0 0.00 0.00 0.00 42 1017.3
20260902025832 82 131 2.0 7.0 0.00 0.00 0.00 42 1017.3
20260902025817 82 152 3.0 7.0 0.00 0.00 0.00 42 1017.4
20260902024305 83 162 2.0 6.0 0.00 0.00 0.00 42 1017.3
20260902023800 83 196 2.0 7.0 0.00 0.00 0.00 41 1017.2
20260902023301 83 164 3.0 7.0 0.00 0.00 0.00 41 1017.1
20260902022801 84 192 3.0 7.0 0.00 0.00 0.00 40 1017.1
20260902022300 84 114 3.0 7.0 0.00 0.00 0.00 40 1016.9
20260902021800 84 138 3.0 7.0 0.00 0.00 0.00 40 1016.8
20260902021258 84 110 2.0 7.0 0.00 0.00 0.00 40 1016.8
20260902020806 85 203 2.0 7.0 0.00 0.00 0.00 39 1016.7
20260902020300 85 106 3.0 7.0 0.00 0.00 0.00 39 1016.6
20260902015804 85 148 2.0 7.0 0.00 0.00 0.00 39 1016.6
20260902015300 85 141 3.0 6.0 0.00 0.00 0.00 38 1016.6
20260902014802 85 161 4.0 7.0 0.00 0.00 0.00 38 1016.7
20260902014259 86 173 4.0 9.0 0.00 0.00 0.00 38 1016.5
20260902013759 86 148 4.0 11.0 0.00 0.00 0.00 37 1016.6
20260902013300 86 133 4.0 11.0 0.00 0.00 0.00 37 1016.6
20260902012759 87 179 2.0 10.0 0.00 0.00 0.00 37 1016.5
20260902012301 87 164 3.0 10.0 0.00 0.00 0.00 37 1016.5
20260902011759 87 172 3.0 9.0 0.00 0.00 0.00 37 1016.5
20260902011259 87 134 4.0 9.0 0.00 0.00 0.00 36 1016.5
20260902010801 88 148 4.0 9.0 0.00 0.00 0.00 35 1016.4
20260902010606 88 173 4.0 10.0 0.00 0.00 0.00 34 1016.3
20260902010126 89 171 5.0 11.0 0.00 0.00 0.00 34 1016.3
20260902005300 89 149 4.0 11.0 0.00 0.00 0.00 34 1016.2
20260902004759 89 172 6.0 18.0 0.00 0.00 0.00 33 1016.1
20260902004300 90 216 4.0 18.0 0.00 0.00 0.00 33 1016.2
20260902004025 90 210 6.0 15.0 0.00 0.00 0.00 32 1016.2
20260902003300 90 114 3.0 15.0 0.00 0.00 0.00 33 1016.2
20260902002759 90 142 6.0 13.0 0.00 0.00 0.00 33 1016.1
20260902002300 91 162 3.0 11.0 0.00 0.00 0.00 31 1016.2
20260902001803 91 135 5.0 13.0 0.00 0.00 0.00 31 1016.1
20260902001259 91 243 6.0 13.0 0.00 0.00 0.00 31 1016.1
20260902000800 91 209 5.0 11.0 0.00 0.00 0.00 30 1016.1
20260902000523 91 203 6.0 11.0 0.00 0.00 0.00 31 1015.9
20260901235801 92 228 5.0 15.0 0.00 0.00 0.00 30 1015.9
20260901235632 92 206 5.0 15.0 0.00 0.00 0.00 29 1015.9
20260901234800 92 192 6.0 15.0 0.00 0.00 0.00 29 1015.8
20260901234300 92 189 5.0 15.0 0.00 0.00 0.00 29 1015.8
20260901233800 92 213 5.0 16.0 0.00 0.00 0.00 29 1015.7
20260901233259 93 200 7.0 16.0 0.00 0.00 0.00 28 1015.6
20260901232803 93 221 6.0 14.0 0.00 0.00 0.00 29 1015.7
20260901232301 93 238 6.0 14.0 0.00 0.00 0.00 28 1015.6
20260901231803 93 231 6.0 14.0 0.00 0.00 0.00 29 1015.5
20260901231300 94 120 6.0 12.0 0.00 0.00 0.00 27 1015.5
20260901230759 94 85 6.0 13.0 0.00 0.00 0.00 28 1015.6
20260901230258 94 107 3.0 13.0 0.00 0.00 0.00 28 1015.6
20260901230019 94 195 4.0 14.0 0.00 0.00 0.00 28 1015.7
20260901225919 94 233 5.0 11.0 0.00 0.00 0.00 29 1015.7
20260901224759 94 141 7.0 18.0 0.00 0.00 0.00 27 1015.7
20260901224259 95 175 9.0 18.0 0.00 0.00 0.00 27 1015.7
20260901223759 95 168 6.0 16.0 0.00 0.00 0.00 28 1015.7
20260901223259 95 171 4.0 12.0 0.00 0.00 0.00 28 1015.8
20260901222803 95 179 4.0 12.0 0.00 0.00 0.00 29 1015.8
20260901222633 95 197 4.0 12.0 0.00 0.00 0.00 30 1015.9
20260901221759 95 61 6.0 16.0 0.00 0.00 0.00 28 1015.9
20260901221258 95 247 7.0 16.0 0.00 0.00 0.00 28 1015.9
20260901220801 94 158 6.0 18.0 0.00 0.00 0.00 30 1016.2
20260901220259 93 223 4.0 18.0 0.00 0.00 0.00 30 1016.1
20260901215800 93 195 9.0 16.0 0.00 0.00 0.00 30 1016.2
20260901215340 95 199 8.0 13.0 0.00 0.00 0.00 30 1016.2
20260901215322 94 207 6.0 13.0 0.00 0.00 0.00 29 1016.3
20260901213801 95 216 7.0 16.0 0.00 0.00 0.00 30 1016.3
20260901213505 95 130 2.0 19.0 0.00 0.00 0.00 29 1016.6
20260901213417 96 142 5.0 19.0 0.00 0.00 0.00 30 1016.4